RH
14 13 12 11 10 8 8 8 7 7 6 6 6 6 6 6 6 6 6 6 6 6 6 6 6 6 7 7 6 7 7 7 7 7 7 7 7 7 7 7 7 7 7 7 7 7 7 7 7 8 9 9 10 12 12 13 14 14 14 15 15 15 16 21 24 27 27 24 22 21 19 18 17 15 13 13 13 14 14 15 17 18 19 20 20 20 20 20 20 20 19 19 18 18 18 19 19 19 18 16 15 15 14
14 13 13 11 10 8 8 8 8 7 7 6 6 6 6 6 6 6 6 6 6 7 7 7 7 7 7 7 7 7 7 7 7 7 7 7 7 7 7 7 8 7 7 8 8 8 8 8 8 8 8 9 9 9 10 11 12 13 14 14 14 14 15 18 21 24 26 24 21 19 17 16 15 14 11 11 11 11 11 12 13 14 16 17 18 19 19 19 19 19 18 18 17 17 16 17 18 18 18 17 16 15 14
14 14 13 12 10 9 8 8 8 8 7 7 6 6 6 6 6 6 7 7 7 7 7 7 7 7 7 7 7 7 7 8 8 8 8 8 8 8 8 8 8 8 8 8 8 9 9 9 9 9 9 10 10 10 10 10 11 12 13 13 13 13 14 15 17 20 22 22 21 18 15 14 13 13 11 10 10 10 10 11 11 11 12 13 14 16 17 18 18 18 17 17 16 16 15 15 16 17 17 17 16 15 14
15 14 13 12 10 9 9 9 8 8 8 7 7 7 7 7 7 7 7 7 7 7 8 7 8 8 8 8 8 8 8 8 8 8 8 8 9 9 9 9 9 9 9 9 9 9 9 9 9 10 10 10 10 11 11 11 11 11 12 12 11 11 13 14 16 16 16 16 17 16 14 12 12 11 11 10 10 10 10 10 10 10 10 11 11 12 13 15 16 17 17 16 16 15 15 14 15 15 16 16 15 15 14
15 14 13 12 11 10 9 9 8 8 8 8 7 7 7 7 7 7 7 7 7 7 8 8 8 8 8 8 8 8 8 8 8 9 9 9 9 9 9 9 9 9 10 10 10 10 10 10 10 10 10 10 10 11 11 11 11 11 11 11 11 10 11 13 14 15 15 14 13 12 12 11 11 11 11 10 10 10 10 10 10 10 10 10 10 10 11 11 13 14 15 15 15 15 15 14 14 14 15 15 15 14 14
16 15 13 12 12 11 10 9 9 9 8 8 8 7 7 7 7 7 7 7 7 8 8 8 8 8 8 8 8 9 9 9 9 9 9 9 9 9 9 10 10 10 10 10 10 10 10 10 10 10 10 10 10 10 10 11 11 11 11 10 10 10 10 11 12 13 13 13 12 11 10 10 11 11 11 11 11 11 10 10 10 10 10 10 10 10 10 10 11 11 12 13 14 14 14 14 14 14 14 15 14 14 14
16 15 13 13 13 12 10 10 9 9 9 9 9 8 7 7 7 7 7 7 7 8 8 8 8 8 8 8 8 9 9 9 9 9 9 9 9 9 9 9 9 10 10 10 10 10 10 10 10 10 10 10 10 10 10 10 10 10 10 10 10 10 10 11 11 11 10 10 10 10 10 10 10 10 11 10 11 11 11 11 11 11 11 11 11 11 11 11 11 11 11 11 11 12 12 13 13 13 13 14 14 14 14
16 15 14 14 14 13 11 11 10 10 10 9 9 9 8 8 7 7 7 7 7 7 8 8 8 8 8 8 8 8 8 9 9 9 9 9 9 9 9 9 9 9 9 9 9 9 9 9 9 9 9 9 10 9 10 9 10 10 10 10 10 10 10 10 10 11 10 9 9 9 9 9 10 10 10 10 10 10 11 11 11 11 11 11 11 11 11 11 11 11 11 11 11 11 11 11 12 12 13 13 13 14 14
17 15 14 14 14 14 12 12 11 11 11 11 10 10 9 8 8 7 7 7 7 7 8 8 8 8 8 8 8 8 8 8 8 8 9 9 9 9 9 9 9 9 9 9 9 9 9 9 9 9 9 9 9 9 9 9 9 9 9 9 9 9 9 9 10 10 10 9 9 9 8 9 9 9 10 10 10 10 11 11 11 11 11 11 11 11 11 11 12 12 12 12 12 12 12 11 11 12 12 12 13 13 13
17 15 15 15 15 14 13 13 12 12 12 12 11 11 10 9 9 8 8 8 8 8 7 7 8 8 8 8 8 8 8 8 8 8 9 9 9 9 8 8 8 8 8 8 8 8 8 8 8 8 8 8 8 8 8 8 9 9 9 9 9 9 9 9 9 9 10 9 9 8 8 8 8 9 9 10 10 10 10 10 11 11 11 11 11 11 12 12 12 12 12 12 12 12 12 12 12 12 12 12 13 13 13
17 16 16 16 15 14 14 13 13 13 13 13 13 12 12 11 10 9 9 9 8 8 8 8 8 8 8 8 8 8 8 8 8 8 8 8 9 9 9 8 8 8 8 8 8 8 8 8 8 8 8 8 8 8 8 8 8 8 8 8 9 9 9 9 9 9 9 9 9 9 8 8 8 8 9 9 10 10 10 10 10 11 11 11 11 11 12 12 12 12 12 12 12 12 12 12 12 12 12 12 12 13 13
18 17 17 17 16 15 14 13 13 13 14 14 14 13 13 12 12 11 11 10 10 9 9 9 8 8 8 8 8 8 8 9 9 9 8 9 9 9 9 9 8 9 8 8 8 8 8 8 8 8 8 8 8 8 8 8 8 8 8 8 8 9 9 9 9 9 9 9 9 9 9 9 9 9 9 9 10 10 10 10 11 11 11 11 11 12 12 12 12 12 11 12 12 12 12 12 12 12 12 12 12 12 12
19 19 18 17 16 15 14 14 13 13 13 14 14 14 13 13 13 12 12 12 11 11 11 10 10 9 9 9 9 9 9 9 9 9 9 9 9 9 9 9 9 9 9 9 8 8 8 8 8 8 8 8 8 8 8 8 8 8 8 9 9 9 9 9 9 9 9 9 9 10 10 10 9 9 9 9 10 10 10 10 11 11 11 11 11 12 12 12 12 12 12 12 12 12 12 12 12 12 12 12 12 12 12
21 20 19 18 17 16 15 14 14 13 13 13 13 14 14 14 14 13 13 13 13 12 12 12 11 11 11 10 10 10 10 10 10 10 10 10 10 10 10 10 9 10 9 9 9 9 9 9 9 8 9 8 8 8 8 8 8 9 9 9 9 9 9 9 9 9 9 10 10 10 10 10 10 10 10 10 10 10 10 11 11 11 11 11 11 11 12 12 12 12 12 12 12 12 12 12 12 12 12 12 12 12 12
22 21 20 19 18 17 16 15 14 13 13 13 13 13 13 13 13 13 13 13 13 13 13 13 13 13 13 12 12 12 11 11 11 11 11 11 11 11 11 11 11 11 10 10 10 10 10 9 9 9 9 9 9 9 9 9 9 9 9 9 9 9 9 9 10 10 10 10 10 10 10 11 11 11 11 10 10 10 10 11 11 11 11 11 11 11 12 12 12 12 12 12 12 12 12 12 12 12 12 12 12 12 12
23 21 19 18 17 17 17 16 15 14 13 13 13 13 13 13 13 13 13 13 13 13 13 13 13 13 13 13 13 13 13 13 12 12 12 12 12 12 12 12 12 12 12 11 11 11 11 10 10 10 10 10 9 9 9 9 9 9 9 9 10 10 10 10 10 10 10 10 10 11 11 11 11 11 11 11 11 11 11 11 11 11 11 11 11 12 12 12 12 12 12 12 12 12 12 12 12 12 12 12 13 13 13
23 21 19 17 16 16 16 16 16 15 14 13 13 13 13 13 13 13 13 13 13 13 13 13 13 13 13 14 14 14 14 13 13 13 13 13 13 13 13 13 13 13 13 13 13 12 12 12 11 11 11 11 11 10 10 10 10 10 10 10 10 10 10 11 11 11 11 11 11 11 11 11 11 11 12 12 12 11 11 11 11 11 11 11 11 11 12 12 12 12 12 12 12 12 12 12 12 12 12 13 13 13 13
23 21 18 17 16 16 16 16 16 15 14 14 13 13 13 13 13 13 13 13 13 13 13 13 13 13 13 13 13 14 14 14 14 14 14 14 14 14 14 14 14 14 14 14 14 13 13 13 13 12 12 12 12 12 12 11 11 11 11 11 11 11 11 11 11 11 12 12 12 12 12 12 12 12 12 12 12 12 12 12 12 11 11 11 11 11 12 12 12 12 12 13 12 12 12 12 12 13 13 13 13 13 13
23 21 19 17 17 17 17 17 17 16 16 15 14 14 13 13 13 13 13 13 13 14 14 14 14 14 13 13 13 13 13 14 14 14 14 14 14 14 14 14 14 14 14 14 14 14 14 14 14 14 13 13 13 13 13 13 13 13 12 12 12 12 12 12 12 12 12 12 12 12 12 12 13 13 13 13 13 13 13 13 13 12 12 12 12 12 12 12 12 12 12 13 13 13 13 13 13 13 13 13 13 13 13
24 22 20 19 18 18 19 19 18 18 17 16 16 15 15 14 14 14 14 13 14 14 15 15 15 15 14 14 14 14 14 14 14 14 14 14 14 14 14 14 14 14 14 14 14 15 14 14 14 14 14 14 14 14 14 14 14 14 14 13 13 13 13 13 13 13 13 13 13 13 13 13 13 13 13 13 13 13 13 13 13 13 13 13 12 12 12 12 12 12 12 13 13 13 13 13 13 13 13 13 13 13 13
24 22 21 19 19 19 20 20 19 19 18 18 17 17 16 16 16 15 15 15 15 15 15 15 16 15 15 15 15 15 15 15 15 15 15 15 15 14 14 14 14 14 14 14 14 14 14 14 14 14 14 14 14 15 15 15 15 14 14 14 14 14 14 14 14 14 14 14 14 14 14 14 14 14 14 14 14 14 14 14 14 14 14 14 13 13 13 13 13 13 13 13 13 13 13 13 13 13 13 13 13 13 13
23 22 21 20 20 21 21 21 20 19 18 18 17 17 16 17 17 17 17 17 16 16 16 16 16 16 16 16 16 16 16 16 17 17 17 17 16 16 15 15 15 15 15 15 14 14 14 14 15 15 15 15 15 15 15 15 15 15 15 15 15 15 15 15 15 15 15 15 15 15 15 15 15 14 15 15 15 15 15 15 15 15 15 15 15 14 14 14 13 13 13 13 13 13 13 13 14 14 13 13 13 13 13
22 21 22 23 23 24 23 23 21 20 19 18 17 17 17 17 18 18 19 19 20 19 19 19 18 18 18 17 17 17 17 18 18 19 19 18 18 18 17 16 16 15 15 15 15 15 15 15 15 15 15 15 15 15 15 15 15 15 15 16 16 16 16 16 16 16 16 16 16 16 16 15 15 15 15 15 15 15 15 15 15 15 15 15 15 15 15 15 14 14 14 14 14 14 14 14 14 14 14 14 14 14 14
22 22 24 25 26 26 26 25 24 23 22 21 20 19 18 18 19 19 20 21 22 22 22 22 22 21 21 20 20 20 20 20 20 20 20 20 19 19 18 17 17 16 16 16 15 15 15 15 15 15 15 15 15 15 15 15 15 16 16 16 16 16 16 16 16 16 16 16 16 16 16 16 16 16 16 16 16 16 16 16 16 16 16 16 16 16 16 16 15 15 15 14 14 14 14 14 14 14 14 15 15 15 14
22 23 24 26 26 26 26 26 25 25 24 24 23 21 21 20 21 21 21 22 23 23 24 24 24 24 24 23 23 22 22 22 22 22 22 21 20 19 19 19 18 18 17 17 16 16 16 15 15 15 15 15 15 15 15 15 15 15 16 16 16 16 16 16 16 16 16 17 17 17 17 17 17 17 17 17 17 17 17 17 17 17 17 17 16 16 16 16 16 16 16 15 15 15 15 15 15 15 15 15 15 15 15
23 24 25 25 25 25 25 25 25 25 24 24 24 23 22 22 22 22 22 22 23 23 23 23 24 24 24 23 23 23 23 23 23 23 23 22 21 21 20 20 19 19 18 18 17 17 16 16 16 16 15 15 15 15 15 15 15 15 16 16 16 16 16 16 16 17 17 17 17 17 17 17 17 17 17 17 17 17 17 17 17 17 17 17 17 17 17 17 17 17 17 17 16 16 16 16 16 16 16 16 16 16 16
26 27 27 27 26 26 26 25 25 25 25 25 24 24 23 22 22 22 22 22 22 22 23 23 23 23 23 23 23 23 23 23 23 23 23 23 23 22 22 21 21 20 20 19 19 18 18 17 17 16 16 16 16 16 15 15 16 16 16 16 16 16 16 16 17 17 17 17 17 17 17 17 17 17 17 18 18 18 18 18 18 18 18 18 17 17 17 17 17 17 18 18 18 18 17 17 17 17 17 17 17 18 18
28 29 29 28 28 28 28 27 27 27 27 26 26 25 23 23 22 22 22 22 22 22 22 22 23 23 23 23 23 22 22 22 23 23 23 23 23 23 23 23 22 22 21 21 20 20 19 19 18 18 17 17 17 17 16 16 16 16 16 16 17 17 17 17 17 17 17 17 17 17 18 18 18 18 18 18 18 18 18 18 18 18 18 18 18 18 18 18 18 18 18 18 18 18 19 19 18 18 18 19 19 19 19
30 30 30 30 30 30 30 29 29 29 29 29 28 27 26 25 24 23 22 22 22 22 22 22 22 23 23 24 24 23 23 23 22 22 22 22 22 22 22 22 22 22 21 21 21 20 20 20 20 19 19 18 18 18 18 18 18 18 18 18 17 17 17 18 18 18 18 18 18 18 18 18 18 18 18 18 18 18 18 18 18 18 18 18 18 18 18 18 18 18 18 18 19 19 20 20 20 20 20 20 21 21 21
31 31 31 31 31 31 31 31 31 31 31 30 30 29 28 27 26 25 24 24 23 22 22 22 22 23 23 24 25 25 24 24 23 22 22 22 21 21 21 21 21 21 21 20 20 20 20 20 20 20 20 19 19 19 19 19 19 19 19 19 19 19 19 19 19 19 19 19 19 18 18 18 18 18 18 18 19 18 18 18 19 18 18 18 19 18 18 19 18 19 19 18 19 19 20 20 21 21 21 22 22 22 23
32 32 32 32 32 32 32 32 32 32 32 32 32 31 31 30 29 28 26 25 25 24 23 23 23 23 24 24 25 25 25 25 24 24 23 22 22 22 21 21 20 20 20 20 19 19 19 19 19 19 19 19 19 19 19 19 19 19 19 19 19 19 20 20 20 20 20 20 20 19 19 19 19 19 18 19 19 18 19 19 19 19 19 19 19 19 19 19 19 19 19 19 19 19 20 20 20 21 21 22 22 23 23
33 33 33 32 32 32 32 32 32 32 33 33 33 32 32 32 30 29 28 27 26 26 25 25 24 24 24 24 24 24 24 25 25 24 24 23 23 22 21 21 20 20 19 19 19 18 18 18 18 18 18 18 18 18 18 18 18 19 18 19 19 19 19 19 20 20 20 20 20 20 20 20 20 19 19 19 19 19 19 19 19 19 19 19 19 19 19 19 19 19 19 19 19 19 19 20 20 20 21 22 23 23 24
35 35 34 34 34 34 33 33 33 33 33 33 33 32 32 31 31 30 29 28 27 26 26 25 25 25 25 24 24 23 23 23 24 24 23 23 23 22 21 21 20 19 19 19 18 18 18 18 18 18 17 18 17 18 17 18 18 18 18 18 18 18 18 19 19 19 19 20 20 20 21 21 21 20 20 20 20 20 20 20 20 19 19 19 19 19 19 19 19 19 19 19 19 19 20 20 20 20 21 22 22 23 24
36 36 36 36 36 36 35 35 35 34 34 34 33 32 32 31 30 29 29 28 27 27 26 26 25 25 25 24 23 23 23 23 23 23 22 22 22 21 21 21 20 20 19 19 19 18 18 18 18 18 17 17 17 17 17 17 17 17 17 17 17 17 18 18 18 18 18 19 19 19 20 20 20 21 21 21 21 21 21 21 20 21 20 20 20 20 20 20 20 20 20 20 20 20 20 20 20 20 21 21 22 23 24
36 36 36 37 37 37 37 36 36 36 35 35 34 33 33 32 31 31 30 30 29 29 28 27 27 26 25 25 25 24 24 23 23 23 22 22 21 21 21 21 20 20 20 19 19 19 18 18 18 18 18 18 17 17 17 17 17 17 17 17 17 17 17 17 17 18 18 18 18 18 19 19 19 20 20 20 20 21 21 21 21 21 22 22 21 21 21 21 21 21 21 21 21 21 21 20 21 21 21 21 21 22 23
35 35 35 35 36 36 36 37 37 37 37 36 36 36 35 34 34 34 34 33 33 32 31 30 30 29 28 28 27 26 26 25 25 24 23 23 22 22 22 22 21 21 21 21 20 20 20 20 19 19 19 19 19 18 18 18 18 18 17 17 17 17 17 17 17 17 18 18 18 18 18 18 19 19 19 19 19 20 20 20 21 21 21 22 22 22 22 22 22 22 22 22 22 22 22 22 22 21 21 21 21 22 22
37 37 37 38 38 38 38 38 39 39 39 39 39 39 39 38 38 38 37 37 37 36 35 34 34 33 32 31 31 30 29 28 27 26 25 25 24 24 24 24 24 24 24 23 23 23 23 22 22 22 21 21 21 21 20 20 20 19 19 19 18 18 18 18 18 18 18 18 18 18 19 19 19 19 19 19 19 19 19 19 20 20 20 21 21 21 22 22 22 22 23 23 23 23 23 23 23 23 23 23 23 23 23
42 42 42 42 42 42 42 42 42 42 42 43 43 43 42 42 41 41 41 40 40 39 38 38 37 36 35 35 34 33 32 31 30 29 29 28 28 27 27 27 27 27 27 26 26 26 26 26 25 25 25 24 24 24 24 23 23 22 22 22 21 21 20 20 20 20 19 19 19 19 19 19 19 19 19 19 19 19 19 19 19 19 19 20 20 20 21 21 21 22 22 23 23 23 23 24 24 24 24 24 24 24 24
45 45 45 45 45 45 45 44 44 44 44 44 44 44 44 44 43 43 42 42 42 42 41 40 39 39 38 37 36 35 34 34 33 33 32 32 31 31 30 30 30 30 30 30 30 30 29 29 29 28 28 28 27 27 27 27 26 26 26 25 25 24 24 23 23 23 22 22 21 21 21 21 21 21 21 20 20 20 20 20 20 20 20 20 20 20 20 20 20 21 21 22 22 23 24 24 25 25 26 26 26 26 26
45 45 44 44 44 43 43 43 43 43 43 43 43 43 43 43 43 43 43 43 43 43 42 42 41 40 39 38 38 37 36 36 35 35 35 34 34 34 33 34 34 33 33 33 33 33 32 32 32 31 31 30 30 30 30 29 29 29 29 29 28 28 28 27 27 26 26 25 25 24 24 24 23 23 23 23 23 22 22 22 22 21 21 21 21 20 20 20 21 21 21 22 23 24 25 26 27 28 29 29 29 29 29
40 40 39 39 39 39 39 39 39 38 39 38 38 38 39 39 39 40 40 41 41 40 40 40 39 39 38 37 37 36 36 35 35 35 35 35 35 34 34 34 34 34 34 34 34 33 33 33 33 32 32 32 32 32 32 31 31 31 31 31 31 31 31 30 30 30 29 29 28 28 27 27 27 26 26 26 25 25 25 25 24 24 24 23 23 23 22 22 22 22 22 23 23 25 26 27 29 31 32 33 33 33 34
35 34 33 33 33 33 33 33 33 33 34 33 33 33 33 34 34 35 35 36 35 35 35 35 35 35 34 34 33 33 33 32 32 32 32 32 31 31 31 31 31 31 31 31 31 31 30 30 30 30 30 30 30 30 30 30 30 30 30 30 30 30 31 31 31 31 31 31 31 31 30 30 30 30 29 29 29 29 28 28 28 27 27 27 26 26 26 25 25 25 24 24 25 25 26 28 30 32 33 35 35 36 37
30 29 28 28 27 27 28 28 28 28 28 28 28 28 28 28 29 29 30 30 30 30 30 30 30 30 30 29 29 29 28 28 28 28 28 28 28 27 27 27 27 27 27 27 26 26 26 26 26 26 26 26 26 26 26 26 26 26 26 26 27 27 28 28 29 29 29 29 30 30 30 31 31 31 31 31 31 31 31 31 30 30 30 30 30 29 29 29 29 28 28 28 27 27 27 28 30 32 34 35 37 38 40
25 24 24 23 23 22 22 22 22 22 22 22 22 22 22 23 24 24 26 26 26 26 26 26 27 27 27 27 26 26 26 26 26 26 26 26 26 25 25 25 25 25 25 25 24 24 24 24 24 23 23 23 23 23 22 23 23 23 23 23 23 24 24 24 25 25 26 26 26 27 27 28 28 29 30 30 30 31 31 31 31 31 31 31 31 31 31 31 31 31 30 30 30 30 30 30 31 32 33 35 37 40 42
20 19 19 18 18 18 18 18 18 18 18 18 18 18 18 18 19 21 21 22 23 23 23 23 23 24 25 24 24 24 24 24 25 25 25 25 25 25 25 25 25 25 25 24 24 24 24 24 23 23 23 23 22 22 22 22 22 22 22 22 22 22 22 22 23 23 23 24 24 24 25 25 25 26 26 27 28 28 29 30 30 30 31 31 31 31 31 31 31 31 31 31 31 31 31 31 31 31 32 33 35 38 41
16 15 15 15 15 15 15 15 15 15 15 15 14 14 15 15 16 17 18 19 19 20 20 20 20 21 21 21 21 21 22 22 22 23 24 24 24 24 24 24 24 24 24 24 23 24 24 23 23 23 23 22 22 22 22 22 22 22 22 22 22 22 22 23 23 23 23 23 23 23 24 24 24 24 24 25 25 26 26 27 28 28 29 29 30 30 30 31 31 31 31 31 31 31 30 30 30 30 30 31 32 33 36
14 14 14 14 14 14 14 14 14 14 14 14 14 14 14 15 15 16 16 17 17 18 18 18 19 19 19 19 20 20 20 20 21 21 22 22 22 22 22 22 22 22 22 22 22 22 23 23 23 23 23 23 22 22 22 22 22 23 23 23 23 23 23 23 23 24 24 24 24 24 24 24 24 24 24 24 24 24 25 25 26 26 26 27 27 28 28 29 29 30 30 30 30 30 30 30 30 29 29 29 30 30 31
15 15 15 15 15 15 15 15 15 15 15 15 15 16 16 16 16 16 17 18 18 18 18 19 19 19 19 19 19 20 20 20 20 21 21 21 21 21 21 21 20 20 21 21 21 21 21 21 21 21 22 22 22 22 23 23 23 24 24 24 24 24 24 24 25 25 25 25 25 25 25 25 25 25 25 25 25 25 24 24 25 25 25 25 25 26 26 27 27 28 28 29 29 29 29 29 29 29 29 29 29 29 29
16 16 16 17 17 17 17 17 17 17 17 17 17 17 17 17 17 18 18 19 19 20 20 20 20 21 20 20 20 20 21 21 21 22 23 23 22 21 20 20 20 20 20 20 20 20 19 20 20 19 19 20 20 21 21 22 22 23 23 23 24 24 24 25 25 25 26 26 26 26 27 27 27 27 26 26 26 26 25 25 25 25 25 25 25 25 25 25 25 26 26 27 27 28 28 28 29 29 29 29 29 29 29
18 18 18 18 18 18 18 18 18 18 18 18 18 18 18 18 18 18 19 20 20 20 21 21 21 22 22 22 22 22 22 22 23 23 24 24 23 23 22 21 21 21 20 20 19 20 19 19 19 19 18 18 19 19 20 20 21 21 21 21 21 22 22 23 23 23 24 24 25 25 25 26 26 26 26 26 26 25 26 25 25 25 25 25 25 25 24 24 24 25 25 25 25 26 26 27 27 28 28 28 29 29 29
18 18 18 18 18 18 18 18 18 18 18 18 18 19 19 19 19 19 20 20 20 21 21 21 22 22 23 23 23 22 22 23 23 24 25 24 24 24 24 23 23 22 21 21 20 20 20 20 19 19 19 19 20 20 20 20 20 20 20 20 21 21 21 21 21 21 21 21 21 21 21 21 21 21 22 22 22 22 23 23 23 24 24 24 24 24 24 25 25 25 25 25 25 25 26 26 26 27 27 28 28 29 29
18 18 18 18 18 18 18 18 18 18 18 18 18 19 19 19 19 19 20 20 20 21 21 21 22 22 22 23 23 22 22 23 23 24 25 24 24 24 25 25 25 24 23 22 21 21 21 21 20 20 20 20 20 20 20 21 21 21 21 21 21 21 21 21 21 21 21 21 20 20 19 19 18 18 18 18 18 18 19 19 20 20 21 21 22 22 23 23 24 24 24 25 25 25 25 26 26 26 27 27 28 29 29
17 17 17 17 17 17 17 17 17 18 18 18 18 18 18 19 19 19 19 20 20 20 21 21 21 22 22 22 22 22 22 23 23 24 24 24 24 24 25 25 25 25 24 24 23 22 21 21 20 20 20 21 21 21 21 21 21 21 21 21 21 21 21 20 21 20 20 20 20 19 19 18 18 18 18 17 17 17 17 17 17 17 18 18 19 19 20 20 21 21 22 23 23 24 24 25 25 26 26 27 27 28 28
16 16 16 16 16 16 16 16 17 17 17 17 17 18 18 18 18 19 19 19 20 20 20 21 21 22 22 22 22 22 22 22 23 24 24 25 25 25 25 25 24 24 24 25 24 23 21 21 20 21 21 21 21 21 21 21 21 21 21 21 21 21 20 20 20 19 19 19 18 18 18 18 17 17 17 17 17 17 17 17 17 17 17 17 17 17 17 17 18 18 19 19 20 21 21 22 23 23 24 25 25 26 26
14 14 15 15 15 15 15 16 16 16 16 16 17 17 17 17 18 17 18 18 18 19 19 19 20 21 21 22 22 22 22 22 23 23 24 24 24 25 24 24 24 24 24 23 23 22 21 21 21 21 21 21 22 22 22 22 22 22 22 22 22 22 22 21 20 20 19 18 18 17 17 17 17 17 17 17 17 17 17 17 18 17 18 18 17 17 17 17 17 17 17 17 18 18 18 19 19 20 21 21 22 22 23
13 14 14 14 15 15 15 15 16 16 16 16 16 17 17 17 17 17 17 17 17 17 18 18 18 19 20 20 20 21 21 21 22 22 23 23 23 24 24 24 24 24 23 22 21 21 21 21 22 22 21 21 22 22 22 22 22 22 23 23 23 23 23 22 22 21 21 20 19 19 18 18 18 17 17 17 17 17 17 18 18 18 18 18 18 18 18 18 18 18 18 18 17 17 17 17 18 18 18 18 19 19 20
13 14 14 14 15 15 15 16 16 16 16 16 16 16 16 17 17 17 17 17 17 17 17 17 17 18 18 18 19 20 20 20 21 21 21 22 22 23 24 24 24 24 24 23 23 22 22 22 23 23 22 21 22 22 22 22 22 22 23 23 23 23 23 23 23 22 22 21 21 21 20 20 20 20 19 19 19 19 19 19 20 20 20 20 20 20 20 20 20 20 20 19 19 19 19 19 18 18 18 18 18 18 18
14 14 14 14 15 15 15 16 16 16 16 16 16 16 16 16 16 16 17 17 17 17 17 17 17 17 17 18 18 19 20 20 20 20 20 21 22 23 23 23 23 23 23 24 23 24 24 24 24 24 23 22 22 22 22 23 22 22 23 23 23 23 23 23 23 23 22 22 21 21 21 22 22 22 22 22 22 22 22 22 22 22 22 23 22 22 22 22 22 22 22 22 22 21 21 21 21 20 20 20 19 19 19
13 14 14 14 14 15 15 15 16 16 16 16 16 16 16 16 17 17 17 17 18 18 18 18 18 18 18 18 18 19 19 19 19 20 21 22 22 23 23 24 24 24 24 24 24 25 25 25 25 25 25 24 23 22 22 23 23 23 22 22 23 23 24 24 23 23 23 22 22 22 22 22 22 23 23 24 24 24 24 24 25 25 26 26 26 26 26 26 26 26 25 25 25 25 25 24 24 24 23 23 22 22 21
13 14 14 14 14 14 15 15 15 16 16 16 16 16 17 17 17 17 18 18 18 18 19 19 19 19 19 19 20 20 20 20 20 21 22 23 23 23 23 24 25 25 25 25 26 26 26 26 26 26 26 26 25 24 23 22 22 23 22 22 22 23 23 23 23 23 23 23 23 23 23 23 23 23 24 24 24 24 25 25 26 27 28 28 29 29 29 29 29 29 29 29 29 28 28 28 28 27 27 26 26 25 25
14 14 14 14 14 14 14 14 15 15 16 16 16 17 17 17 17 18 18 19 19 19 20 20 21 21 21 21 21 22 22 22 22 22 23 23 23 23 23 24 25 25 26 26 26 26 26 26 26 26 27 27 27 26 25 23 22 22 22 21 22 22 22 22 22 23 23 23 23 23 23 23 23 23 23 24 24 24 25 25 26 27 28 29 29 30 31 31 31 32 32 32 32 32 32 32 31 31 31 30 30 29 29